Monte Cimone, Italy

1:38 PM CEST on June 27, 2017 (GMT +0200)
Monte Cimone

Weather History for LIVC - May, 2013

Change the Weather History Date:

Thursday, May 9, 2013

  Actual Average Record
Temperature  
Mean Temperature 46 °F -  
Max Temperature 51 °F 44 °F 53 °F (2007)
Min Temperature 41 °F 36 °F 24 °F (1997)
Degree Days  
Heating Degree Days 19    
Moisture  
Dew Point 39 °F    
Average Humidity 76    
Maximum Humidity 95    
Minimum Humidity 48    
Precipitation  
Precipitation 0.00 in 0.08 in - ()
Sea Level Pressure  
Sea Level Pressure 30.15 in    
Wind  
Wind Speed 9 mph ()    
Max Wind Speed 21 mph    
Max Gust Speed -    
Visibility 6.3 miles    
Events Fog    
Averages and records for this station are not official NWS values.
T = Trace of Precipitation, MM = Missing Value Source: Averaged Metar Reports

Daily Weather History Graph

Daily Weather History Graph

Search for Another Location

Airport or City:

Trip Planner

Search our weather history database for the weather conditions in past years. The results will help you decide how hot, cold, wet, or windy it might be!

Date:

Astronomy

May. 09, 2013 Rise Set
Actual Time 5:57 AM CEST 8:30 PM CEST
Civil Twilight 5:24 AM CEST 9:03 PM CEST
Nautical Twilight 4:43 AM CEST 9:44 PM CEST
Astronomical Twilight 3:57 AM CEST 10:31 PM CEST
Moon 5:33 AM CEST (5/9) 8:09 PM CEST (5/9)
Length of Visible Light 15h 38m
Length of Day
14h 32m
Waning Crescent, 0% of the Moon is Illuminated
May 9
Waning Crescent
May 10
New
May 18
First Quarter
May 25
Full
May 31
Last Quarter

Hourly Weather History & Observations

Time (CEST) Temp. Windchill Dew Point Humidity Pressure Visibility Wind Dir Wind Speed Gust Speed Precip Events Conditions
12:55 AM 42.8 °F 34.0 °F 37.4 °F 81% 30.12 in - North 20.7 mph - N/A   Clear
1:55 AM 41.0 °F 32.2 °F 39.2 °F 93% 30.15 in - North 18.4 mph - N/A   Clear
2:00 AM 41 °F - 38 °F 86%  in 19 mi North 18.4 mph - -  
2:55 AM 41.0 °F 32.5 °F 33.8 °F 76% 30.12 in - North 17.3 mph - N/A   Clear
3:55 AM 41.0 °F 33.1 °F 30.2 °F 65% 30.12 in - North 15.0 mph - N/A   Clear
4:55 AM 41.0 °F 32.8 °F 30.2 °F 65% 30.12 in - North 16.1 mph - N/A   Clear
5:55 AM 42.8 °F 39.3 °F 30.2 °F 61% 30.12 in - North 5.8 mph - N/A   Clear
6:55 AM 42.8 °F 39.3 °F 30.2 °F 61% 30.12 in - North 5.8 mph - N/A   Unknown
7:55 AM 44.6 °F - 30.2 °F 57% 30.12 in - Calm Calm - N/A   Clear
8:00 AM 44 °F - 31 °F 48%  in 19 mi Calm Calm - -  
8:55 AM 44.6 °F - 30.2 °F 57% 30.12 in - Calm Calm - N/A   Clear
9:55 AM 44.6 °F - 35.6 °F 71% 30.15 in - Calm Calm - N/A   Clear
10:55 AM 46.4 °F - 39.2 °F 76% 30.15 in - Calm Calm - N/A   Clear
11:55 AM 48.2 °F - 39.2 °F 71% 30.15 in - Calm Calm - N/A   Clear
12:55 PM 48.2 °F - 39.2 °F 71% 30.18 in - Calm Calm - N/A   Clear
1:55 PM 50.0 °F - 39.2 °F 66% 30.18 in - Calm Calm - N/A   Clear
2:00 PM 50 °F - 40 °F 59%  in 19 mi Calm Calm - -  
2:55 PM 50.0 °F - 42.8 °F 76% 30.18 in 6.2 mi SSW 6.9 mph - N/A   Scattered Clouds
3:55 PM 51.8 °F - 44.6 °F 76% 30.18 in 6.2 mi SSW 8.1 mph - N/A   Mostly Cloudy
4:55 PM 50.0 °F - 44.6 °F 82% 30.18 in 6.2 mi SSW 5.8 mph - N/A   Overcast
5:55 PM 48.2 °F - 46.4 °F 93% 30.18 in 6.2 mi SSW 6.9 mph - N/A   Overcast
6:55 PM 48.2 °F - 46.4 °F 93% 30.18 in 0.0 mi SSW 9.2 mph - N/A Fog Fog
7:55 PM 48.2 °F - 46.4 °F 93% 30.15 in 0.0 mi SSW 9.2 mph - N/A Fog Fog
8:00 PM 47 °F - 46 °F 95%  in 0 mi SSW 9.2 mph - - Fog Heavy Fog
8:55 PM 48.2 °F - 46.4 °F 93% 30.15 in 0.0 mi SSW 8.1 mph - N/A Fog Fog
9:55 PM 48.2 °F - 44.6 °F 87% 30.15 in 0.0 mi SSW 8.1 mph - N/A Fog Fog
10:55 PM 46.4 °F 42.9 °F 44.6 °F 93% 30.15 in 0.0 mi SSW 6.9 mph - N/A Fog Fog
11:55 PM 46.4 °F 41.9 °F 42.8 °F 87% 30.15 in - SSW 9.2 mph - N/A   Clear